Stündliche Wetter Wien

Heute, 14 Mai, Freitag

Zeit Temperatur Niederschläge Wind Luftdruck Luftfeuchtigkeit
00:00 +9°C° 0.1 mm 6 m/S 735 mmHg 82%
01:00 +9°C° 0.1 mm 6 m/S 735 mmHg 84%
02:00 +9°C° 0.2 mm 6 m/S 735 mmHg 85%
03:00 +9°C° 0.2 mm 5 m/S 735 mmHg 86%
04:00 +9°C° 0.2 mm 5 m/S 735 mmHg 88%
05:00 +9°C° 0.4 mm 5 m/S 735 mmHg 89%
06:00 +9°C° 0.4 mm 5 m/S 736 mmHg 90%
07:00 +9°C° 0.4 mm 5 m/S 736 mmHg 91%
08:00 +9°C° 0.5 mm 5 m/S 736 mmHg 90%
09:00 +10°C° 0.5 mm 4 m/S 737 mmHg 89%
10:00 +10°C° 0.5 mm 4 m/S 737 mmHg 88%
11:00 +11°C° 0.1 mm 4 m/S 737 mmHg 83%
12:00 +13°C° 0.1 mm 4 m/S 737 mmHg 77%
13:00 +14°C° 0.1 mm 3 m/S 737 mmHg 72%
14:00 +14°C° 0 mm 3 m/S 737 mmHg 68%
15:00 +16°C° 0 mm 2 m/S 737 mmHg 63%
16:00 +17°C° 0 mm 2 m/S 737 mmHg 59%
17:00 +16°C° 0 mm 2 m/S 737 mmHg 67%
18:00 +14°C° 0 mm 2 m/S 737 mmHg 74%
19:00 +13°C° 0 mm 2 m/S 737 mmHg 81%
20:00 +13°C° 0.1 mm 2 m/S 738 mmHg 84%
21:00 +12°C° 0.1 mm 2 m/S 738 mmHg 86%
22:00 +10°C° 0.1 mm 2 m/S 738 mmHg 88%
23:00 +10°C° 0.3 mm 2 m/S 738 mmHg 89%

Morgen, 15 Mai, Samstag

Zeit Temperatur Niederschläge Wind Luftdruck Luftfeuchtigkeit
00:00 +10°C° 0.3 mm 2 m/S 738 mmHg 90%
01:00 +10°C° 0.3 mm 2 m/S 738 mmHg 91%
02:00 +11°C° 0.2 mm 1 m/S 738 mmHg 90%
03:00 +10°C° 0.2 mm 1 m/S 738 mmHg 90%
04:00 +10°C° 0.2 mm 1 m/S 738 mmHg 90%
05:00 +11°C° 0.1 mm 1 m/S 739 mmHg 89%
06:00 +11°C° 0.1 mm 1 m/S 739 mmHg 87%
07:00 +12°C° 0.1 mm 1 m/S 739 mmHg 85%
08:00 +13°C° 0 mm 1 m/S 739 mmHg 84%
09:00 +13°C° 0 mm 1 m/S 739 mmHg 82%
10:00 +13°C° 0 mm 1 m/S 739 mmHg 81%
11:00 +15°C° 0.1 mm 1 m/S 739 mmHg 76%
12:00 +16°C° 0.1 mm 2 m/S 738 mmHg 72%
13:00 +17°C° 0.1 mm 2 m/S 738 mmHg 67%
14:00 +17°C° 0.2 mm 2 m/S 738 mmHg 67%
15:00 +18°C° 0.2 mm 3 m/S 737 mmHg 68%
16:00 +18°C° 0.2 mm 3 m/S 737 mmHg 68%
17:00 +17°C° 0.1 mm 3 m/S 736 mmHg 73%
18:00 +16°C° 0.1 mm 3 m/S 736 mmHg 79%
19:00 +14°C° 0.1 mm 3 m/S 735 mmHg 84%
20:00 +14°C° 0.4 mm 2 m/S 735 mmHg 87%
21:00 +14°C° 0.4 mm 2 m/S 735 mmHg 91%
22:00 +13°C° 0.4 mm 2 m/S 735 mmHg 94%
23:00 +12°C° 0.5 mm 3 m/S 736 mmHg 93%

übermorgen, 16 Mai, Sonntag

Zeit Temperatur Niederschläge Wind Luftdruck Luftfeuchtigkeit
00:00 +10°C° 0.5 mm 5 m/S 736 mmHg 92%
01:00 +10°C° 0.5 mm 6 m/S 737 mmHg 91%
02:00 +9°C° 0.3 mm 6 m/S 737 mmHg 91%
03:00 +9°C° 0.3 mm 6 m/S 737 mmHg 90%
04:00 +8°C° 0.3 mm 6 m/S 738 mmHg 89%
05:00 +8°C° 0.1 mm 5 m/S 738 mmHg 87%
06:00 +9°C° 0.1 mm 5 m/S 739 mmHg 84%
07:00 +10°C° 0.1 mm 4 m/S 739 mmHg 82%
08:00 +12°C° 0 mm 4 m/S 739 mmHg 72%
09:00 +14°C° 0 mm 4 m/S 739 mmHg 63%
10:00 +15°C° 0 mm 4 m/S 739 mmHg 54%
11:00 +17°C° 0 mm 3 m/S 738 mmHg 52%
12:00 +18°C° 0 mm 3 m/S 738 mmHg 50%
13:00 +19°C° 0 mm 2 m/S 738 mmHg 47%
14:00 +19°C° 0 mm 2 m/S 738 mmHg 48%
15:00 +19°C° 0 mm 2 m/S 737 mmHg 49%
16:00 +19°C° 0 mm 2 m/S 737 mmHg 50%
17:00 +18°C° 0 mm 2 m/S 737 mmHg 58%
18:00 +16°C° 0 mm 2 m/S 736 mmHg 66%
19:00 +15°C° 0 mm 2 m/S 736 mmHg 73%
20:00 +14°C° 0 mm 2 m/S 736 mmHg 77%
21:00 +13°C° 0 mm 2 m/S 737 mmHg 81%
22:00 +12°C° 0 mm 1 m/S 737 mmHg 84%
23:00 +12°C° 0 mm 2 m/S 737 mmHg 84%

17 Mai, Montag

Zeit Temperatur Niederschläge Wind Luftdruck Luftfeuchtigkeit
00:00 +12°C° 0 mm 2 m/S 737 mmHg 84%
01:00 +12°C° 0 mm 2 m/S 738 mmHg 83%
02:00 +12°C° 0 mm 2 m/S 738 mmHg 84%
03:00 +11°C° 0 mm 1 m/S 738 mmHg 85%
04:00 +11°C° 0 mm 1 m/S 737 mmHg 86%
05:00 +12°C° 0 mm 1 m/S 738 mmHg 82%
06:00 +13°C° 0 mm 1 m/S 738 mmHg 78%
07:00 +14°C° 0 mm 1 m/S 738 mmHg 74%
08:00 +15°C° 0 mm 2 m/S 738 mmHg 70%
09:00 +16°C° 0 mm 3 m/S 738 mmHg 66%
10:00 +16°C° 0 mm 3 m/S 738 mmHg 61%
11:00 +17°C° 0.2 mm 4 m/S 738 mmHg 59%
12:00 +17°C° 0.2 mm 4 m/S 738 mmHg 57%
13:00 +17°C° 0.2 mm 4 m/S 738 mmHg 55%
14:00 +16°C° 0 mm 5 m/S 738 mmHg 56%
15:00 +15°C° 0 mm 6 m/S 739 mmHg 56%
16:00 +15°C° 0 mm 6 m/S 739 mmHg 56%
17:00 +14°C° 0 mm 6 m/S 739 mmHg 60%
18:00 +13°C° 0 mm 5 m/S 739 mmHg 64%
19:00 +12°C° 0 mm 5 m/S 739 mmHg 67%
20:00 +12°C° 0 mm 4 m/S 739 mmHg 67%
21:00 +11°C° 0 mm 4 m/S 740 mmHg 66%
22:00 +11°C° 0 mm 4 m/S 740 mmHg 66%
23:00 +11°C° 0 mm 3 m/S 740 mmHg 67%

18 Mai, Dienstag

Zeit Temperatur Niederschläge Wind Luftdruck Luftfeuchtigkeit
00:00 +11°C° 0 mm 3 m/S 740 mmHg 69%
01:00 +10°C° 0 mm 2 m/S 740 mmHg 70%
02:00 +10°C° 0 mm 2 m/S 740 mmHg 72%
03:00 +9°C° 0 mm 2 m/S 740 mmHg 73%
04:00 +10°C° 0 mm 1 m/S 740 mmHg 75%
05:00 +10°C° 0 mm 2 m/S 741 mmHg 71%
06:00 +11°C° 0 mm 3 m/S 741 mmHg 68%
07:00 +12°C° 0 mm 4 m/S 741 mmHg 65%
08:00 +12°C° 0 mm 5 m/S 741 mmHg 65%
09:00 +13°C° 0 mm 6 m/S 741 mmHg 66%
10:00 +12°C° 0 mm 7 m/S 742 mmHg 67%
11:00 +12°C° 0.1 mm 7 m/S 741 mmHg 66%
12:00 +12°C° 0.1 mm 7 m/S 741 mmHg 65%
13:00 +14°C° 0.1 mm 7 m/S 741 mmHg 64%
14:00 +14°C° 0 mm 6 m/S 741 mmHg 64%
15:00 +14°C° 0 mm 6 m/S 741 mmHg 64%
16:00 +14°C° 0 mm 6 m/S 741 mmHg 65%
17:00 +13°C° 0.1 mm 5 m/S 741 mmHg 68%
18:00 +12°C° 0.1 mm 5 m/S 741 mmHg 72%
19:00 +11°C° 0.1 mm 4 m/S 742 mmHg 76%
20:00 +10°C° 0 mm 5 m/S 742 mmHg 77%
21:00 +9°C° 0 mm 6 m/S 742 mmHg 78%
22:00 +8°C° 0 mm 6 m/S 743 mmHg 78%
23:00 +8°C° 0 mm 6 m/S 743 mmHg 79%

19 Mai, Mittwoch

Zeit Temperatur Niederschläge Wind Luftdruck Luftfeuchtigkeit
00:00 +8°C° 0 mm 6 m/S 743 mmHg 79%
01:00 +7°C° 0 mm 6 m/S 743 mmHg 79%
02:00 +7°C° 0 mm 6 m/S 743 mmHg 79%
03:00 +7°C° 0 mm 5 m/S 743 mmHg 79%
04:00 +7°C° 0 mm 5 m/S 743 mmHg 80%
05:00 +8°C° 0 mm 5 m/S 744 mmHg 76%
06:00 +8°C° 0 mm 5 m/S 744 mmHg 73%
07:00 +9°C° 0 mm 6 m/S 744 mmHg 69%
08:00 +10°C° 0 mm 6 m/S 745 mmHg 69%
09:00 +10°C° 0 mm 6 m/S 745 mmHg 69%
10:00 +10°C° 0 mm 7 m/S 745 mmHg 69%
11:00 +10°C° 0.1 mm 7 m/S 745 mmHg 69%
12:00 +10°C° 0.1 mm 7 m/S 745 mmHg 68%
13:00 +10°C° 0.1 mm 7 m/S 746 mmHg 68%
14:00 +11°C° 0 mm 7 m/S 745 mmHg 67%
15:00 +13°C° 0 mm 6 m/S 745 mmHg 65%
16:00 +13°C° 0 mm 6 m/S 745 mmHg 64%
17:00 +12°C° 0.1 mm 5 m/S 745 mmHg 68%
18:00 +12°C° 0.1 mm 5 m/S 746 mmHg 71%
19:00 +10°C° 0.1 mm 5 m/S 746 mmHg 75%
20:00 +10°C° 0 mm 4 m/S 746 mmHg 78%
21:00 +8°C° 0 mm 4 m/S 747 mmHg 80%
22:00 +7°C° 0 mm 4 m/S 747 mmHg 83%
23:00 +8°C° 0 mm 3 m/S 747 mmHg 84%
Mehr zeigen

Wir brauchen deine Erlaubnis

Meteoprog und unser Service Anbieter werden persönliche Daten aufbewahren, so wie Cookies, Geräte Bezeichnung oder ähnliche Technologien von deinem Gerät und Prozess, so wie Persönliche Daten Inhalte und Werbungen, genauso wie social Media und den Verkehr zu analysieren.

  • Aufbewahrung und/oder Zugang zu deiner Geräte Informationen.

    Cookies, Geräte Bezeichnung oder andere Informationen, können aufbewahrt oder Zugang zu deinem Gerät erhalten, für den Grund, der oben angegeben wird.

  • Personalisierte Werbung und Inhalte, Messungen, Einblick in das Publikum und Produkt Entwicklung.

    Werbungen und Inhalte können personalisiert werden, basierend auf ein Profil. Mehr Daten können besser personalisierte Werbungen und Inhalte hinzufügen. Werbung und Inhalte können gezeigt und gemessen werden. Einblicke über das Publikum, welche die Werbung gesehen haben und den Inhalt, können abgeleitet werden. So wie Daten können genutzt werden, um es zu verbessern oder die Benutzer Erfahrung zu verbessern das System und die Software.

Wenn du “Ich stimme zu” klickst, erlaubst du uns, die Cookies zu benutzen die Geräte Bezeichnung, den Web oder ähnliche Technologien zu benutzen. Deine Settings, können in deinem Gerät bei deinem Browser geändert werden.

Für den bestimmten Zweck, berechtigten Interessen beruhen darauf, mehr als auf den Inhalt. Du kannst mehr darüber in unseren Privaten und Cookie Politik lesen.